Location: Unspecified
(0.0000°N, 0.0000°E)
Time: 16:21:29
(UTC+00:00)

Courier 1B - Pass Details

Date: 02 October 2023
Orbit: 962 x 1208 km, 28.3° (Epoch: 19 September)

Event Time Altitude Azimuth Distance (km) Brightness Sun altitude
Rises 09:07:46 0° 271° (W) 3,755 10.2 49.4°
Reaches altitude 10° 09:11:02 10° 286° (WNW) 2,843 9.7 50.3°
Maximum altitude 09:16:18 23° 335° (NNW) 2,123 9.3 51.6°
Drops below altitude 10° 09:21:49 10° 25° (NNE) 2,981 10.3 52.9°
Sets 09:25:23 0° 39° (NE) 3,983 11.0 53.8°
